Skip Navigation LinksHome page > Weather > Current weather Skip Navigation Links

Current Weather

Moundou, Chad

For information only: do not use for flight planning or navigation.
Latest weather
Observation time Tuesday, April 28, 2015 9:00 AM WAT
Local time Tuesday, April 28, 2015 11:16 AM WAT
Flight conditions Visual Meteorological Conditions
Winds
Wind speed calm
Visibility 6.2 mi.
Sky condition
Ceiling unlimited
Sky clear
Temperature 84°F
Dewpoint 50°F
Altimeter 29.91 in.Hg
Derived measurements
Relative humidity 31%
Heat index 84°F
Density altitude 2219 ft.
Remarks
Ceiling and visibility OK.
METAR FTTD 280800Z 00000KT CAVOK 29/10 Q1013

Settings

Location code

InnerDrive.Weather 4.0.5567.0 Release CLR 4.0.30319.34014
Copyright ©2015 Inner Drive Technology. All rights reserved. Portions Copyright ©1986-2015 David Braverman.

Find weather

Site navigation


Skip Navigation Links

Place info

Page info

PayPal - The safer, easier way to pay online!

Return home.

Copyright ©2015 Inner Drive Technology. Purveyors of fine, hand-crafted computer software. Page printed 2015-04-28T10:16:48 UTC.